CW5629 Weather Reports


Display with metric or nautical units.
time (UTC)temp
F
wind
direction
speed
MPH
gust
MPH
rain 1hr
in
rain 24hr
in
rain mn
in
humidity
%
barometer
mb
20260901232118 61 204 0.0 0.0 0.00 0.00 0.00 86 1020.0
20260901231131 61 205 0.0 0.0 0.00 0.00 0.00 86 1020.1
20260901230118 61 205 0.0 0.0 0.00 0.00 0.00 86 1020.1
20260901225113 61 198 0.0 1.0 0.00 0.00 0.00 86 1019.9
20260901224118 61 228 0.0 1.0 0.00 0.00 0.00 87 1019.9
20260901223151 62 201 0.0 0.0 0.00 0.00 0.00 87 1019.9
20260901222122 62 233 0.0 0.0 0.00 0.00 0.00 87 1019.7
20260901221137 62 233 0.0 0.0 0.00 0.00 0.00 86 1019.7
20260901220120 62 240 0.0 0.0 0.00 0.00 0.00 86 1019.6
20260901215113 62 224 0.0 0.0 0.00 0.00 0.00 86 1019.6
20260901214146 62 224 0.0 0.0 0.00 0.00 0.00 86 1019.7
20260901213137 62 224 0.0 1.0 0.00 0.00 0.00 86 1019.7
20260901212150 62 224 0.0 0.0 0.00 0.00 0.00 85 1019.8
20260901211113 62 224 0.0 0.0 0.00 0.00 0.00 85 1019.9
20260901210127 62 224 0.0 0.0 0.00 0.00 0.00 84 1020.0
20260901205112 63 224 0.0 0.0 0.00 0.00 0.00 84 1020.0
20260901204125 63 224 0.0 0.0 0.00 0.00 0.00 83 1020.1
20260901203111 63 224 0.0 0.0 0.00 0.00 0.00 83 1020.0
20260901202122 63 225 0.0 0.0 0.00 0.00 0.00 83 1020.1
20260901201136 63 225 0.0 0.0 0.00 0.00 0.00 82 1020.2
20260901200122 63 224 0.0 0.0 0.00 0.00 0.00 82 1020.2
20260901195135 63 226 0.0 0.0 0.00 0.00 0.00 81 1020.0
20260901194121 63 323 0.0 0.0 0.00 0.00 0.00 79 1020.2
20260901193114 63 323 0.0 0.0 0.00 0.00 0.00 78 1020.2
20260901192120 63 323 0.0 0.0 0.00 0.00 0.00 78 1020.0
20260901191134 63 323 0.0 0.0 0.00 0.00 0.00 77 1019.9
20260901190127 63 323 0.0 0.0 0.00 0.00 0.00 77 1019.9
20260901185113 64 323 0.0 0.0 0.00 0.00 0.00 77 1019.8
20260901184147 64 323 0.0 2.0 0.00 0.00 0.00 76 1019.8
20260901183119 64 213 0.0 0.0 0.00 0.00 0.00 76 1019.9
20260901182134 64 196 0.0 3.0 0.00 0.00 0.00 75 1020.0
20260901181118 65 210 0.0 3.0 0.00 0.00 0.00 75 1020.1
20260901180112 66 210 1.0 5.0 0.00 0.00 0.00 73 1020.0
20260901175142 66 198 0.0 3.0 0.00 0.00 0.00 72 1019.9
20260901174127 66 202 0.0 4.0 0.00 0.00 0.00 70 1020.1
20260901173140 67 211 0.0 2.0 0.00 0.00 0.00 69 1020.0
20260901172131 67 214 0.0 3.0 0.00 0.00 0.00 69 1020.1
20260901171124 67 184 0.0 1.0 0.00 0.00 0.00 69 1020.0
20260901170156 67 233 0.0 2.0 0.00 0.00 0.00 70 1020.0
20260901165121 67 236 0.0 4.0 0.00 0.00 0.00 69 1020.0
20260901164115 68 205 0.0 3.0 0.00 0.00 0.00 68 1019.8
20260901163121 69 212 1.0 3.0 0.00 0.00 0.00 66 1019.7
20260901162141 69 203 0.0 0.0 0.00 0.00 0.00 69 1019.6
20260901161113 68 205 0.0 3.0 0.00 0.00 0.00 69 1019.9
20260901160124 68 201 0.0 2.0 0.00 0.00 0.00 69 1020.0
20260901155130 68 200 0.0 3.0 0.00 0.00 0.00 67 1020.0
20260901154143 69 217 0.0 4.0 0.00 0.00 0.00 67 1019.9
20260901153135 68 129 0.0 2.0 0.00 0.00 0.00 68 1020.1
20260901152122 68 240 0.0 6.0 0.00 0.00 0.00 67 1020.2
20260901151116 69 117 0.0 4.0 0.00 0.00 0.00 64 1019.9
20260901150148 70 162 1.0 3.0 0.00 0.00 0.00 60 1019.9
20260901145113 71 212 1.0 4.0 0.00 0.00 0.00 59 1019.8
20260901144127 70 209 0.0 5.0 0.00 0.00 0.00 60 1019.8
20260901143136 69 223 0.0 3.0 0.00 0.00 0.00 60 1019.8
20260901142123 70 200 0.0 4.0 0.00 0.00 0.00 61 1019.9
20260901141114 70 221 0.0 5.0 0.00 0.00 0.00 60 1020.1
20260901140122 70 237 0.0 4.0 0.00 0.00 0.00 60 1020.1
20260901135118 71 219 0.0 4.0 0.00 0.00 0.00 60 1020.0
20260901134132 72 317 0.0 3.0 0.00 0.00 0.00 57 1019.9
20260901133139 72 116 1.0 5.0 0.00 0.00 0.00 56 1019.9
20260901132129 73 206 0.0 2.0 0.00 0.00 0.00 57 1020.0
20260901131119 72 214 0.0 4.0 0.00 0.04 0.00 56 1019.9
20260901130132 71 229 1.0 3.0 0.00 0.04 0.00 57 1020.2
20260901125119 70 217 0.0 3.0 0.00 0.04 0.00 62 1020.1
20260901124132 69 224 1.0 3.0 0.00 0.04 0.00 61 1020.2
20260901123123 68 45 1.0 3.0 0.00 0.04 0.00 63 1020.2
20260901122129 70 79 1.0 5.0 0.00 0.04 0.00 61 1020.4
20260901121122 70 225 1.0 5.0 0.00 0.08 0.00 57 1020.3
20260901120128 71 41 0.0 4.0 0.00 0.08 0.00 56 1020.2
20260901115120 71 161 0.0 2.0 0.00 0.08 0.00 58 1020.1
20260901114133 71 180 0.0 0.0 0.00 0.08 0.00 58 1020.2
20260901113119 72 203 0.0 3.0 0.00 0.08 0.00 55 1020.1
20260901112132 71 355 0.0 4.0 0.00 0.08 0.00 59 1020.2
20260901111118 70 121 0.0 2.0 0.00 0.08 0.00 59 1020.2
20260901110129 71 205 1.0 3.0 0.00 0.08 0.00 58 1020.3
20260901105120 69 231 0.0 1.0 0.00 0.08 0.00 62 1020.4
20260901104133 69 206 1.0 4.0 0.00 0.08 0.00 62 1020.5
20260901103118 70 7 0.0 0.0 0.00 0.08 0.00 60 1020.5
20260901102150 69 232 0.0 0.0 0.00 0.08 0.00 59 1020.5
20260901101140 69 179 0.0 0.0 0.00 0.08 0.00 60 1020.5
20260901100132 70 220 0.0 0.0 0.00 0.08 0.00 61 1020.6
20260901095117 68 231 0.0 0.0 0.00 0.08 0.00 65 1020.7
20260901094129 68 157 0.0 0.0 0.00 0.08 0.00 67 1020.8
20260901093142 68 233 0.0 0.0 0.00 0.08 0.00 72 1020.8
20260901092133 67 8 0.0 0.0 0.00 0.08 0.00 74 1020.8
20260901091118 66 189 0.0 0.0 0.00 0.08 0.00 78 1021.0
20260901090131 65 210 0.0 0.0 0.00 0.08 0.00 82 1021.0
20260901085135 63 176 0.0 0.0 0.00 0.08 0.00 87 1021.0
20260901084155 61 206 0.0 0.0 0.00 0.08 0.00 90 1021.0
20260901083139 60 206 0.0 0.0 0.00 0.08 0.00 92 1021.0
20260901082111 59 206 0.0 0.0 0.00 0.08 0.00 93 1021.0
20260901081116 58 206 0.0 0.0 0.00 0.08 0.00 94 1020.8
20260901080154 58 206 0.0 0.0 0.00 0.08 0.00 95 1020.9
20260901075117 57 206 0.0 0.0 0.00 0.08 0.00 95 1020.8
20260901074130 56 206 0.0 0.0 0.00 0.08 0.00 96 1020.7
20260901073114 55 206 0.0 0.0 0.00 0.08 0.00 96 1020.7
20260901072127 54 207 0.0 0.0 0.00 0.08 0.00 96 1020.7
20260901071113 53 206 0.0 0.0 0.00 0.08 0.00 95 1020.6
20260901070126 52 206 0.0 0.0 0.00 0.08 0.00 95 1020.6
20260901065110 52 206 0.0 0.0 0.00 0.08 0.00 95 1020.6
20260901064124 52 206 0.0 0.0 0.00 0.08 0.00 95 1020.6
20260901063136 51 206 0.0 0.0 0.00 0.08 0.00 95 1020.5
20260901062148 51 207 0.0 0.0 0.00 0.08 0.00 95 1020.4
20260901061111 51 207 0.0 0.0 0.00 0.08 0.00 95 1020.2
20260901060124 50 206 0.0 0.0 0.00 0.08 0.00 94 1020.2
20260901055130 50 206 0.0 0.0 0.00 0.08 0.00 94 1020.1
20260901054121 50 206 0.0 0.0 0.00 0.08 0.00 94 1020.0
20260901053135 50 206 0.0 0.0 0.00 0.08 0.00 94 1019.9
20260901052125 50 206 0.0 0.0 0.00 0.08 0.00 94 1019.9
20260901051119 49 206 0.0 0.0 0.00 0.08 0.00 94 1019.9
20260901050125 49 206 0.0 0.0 0.00 0.08 0.00 93 1019.8
20260901045118 49 206 0.0 0.0 0.00 0.08 0.00 93 1019.8
20260901044131 49 206 0.0 0.0 0.00 0.08 0.00 93 1019.8
20260901043115 49 206 0.0 0.0 0.00 0.08 0.00 93 1019.7
20260901042112 49 206 0.0 0.0 0.00 0.08 0.00 93 1019.7
20260901041125 50 206 0.0 0.0 0.00 0.08 0.00 93 1019.7
20260901040153 49 206 0.0 0.0 0.00 0.08 0.00 93 1019.7
20260901035116 50 206 0.0 0.0 0.00 0.08 0.00 93 1019.8
20260901034112 50 206 0.0 0.0 0.00 0.08 0.00 92 1019.9
20260901033125 50 206 0.0 0.0 0.00 0.08 0.00 92 1019.9
20260901032130 50 206 0.0 0.0 0.00 0.08 0.00 92 1019.9
20260901031123 50 206 0.0 0.0 0.00 0.08 0.00 92 1019.9
20260901030129 51 206 0.0 0.0 0.00 0.08 0.00 92 1019.9
20260901025121 51 206 0.0 0.0 0.00 0.08 0.00 92 1019.9
20260901024133 52 206 0.0 0.0 0.00 0.08 0.00 92 1019.9
20260901023119 52 206 0.0 0.0 0.00 0.08 0.00 92 1019.9
20260901022131 53 206 0.0 0.0 0.00 0.08 0.00 92 1019.9
20260901021117 53 206 0.0 0.0 0.00 0.08 0.00 92 1020.0
20260901020127 53 206 0.0 0.0 0.00 0.08 0.00 92 1020.1
20260901015114 53 206 0.0 0.0 0.00 0.08 0.00 92 1020.1
20260901014126 53 206 0.0 0.0 0.00 0.08 0.00 92 1020.1
20260901013113 53 206 0.0 0.0 0.00 0.08 0.00 92 1020.1
20260901012126 53 204 0.0 0.0 0.00 0.08 0.00 92 1020.0
20260901011138 53 198 0.0 0.0 0.00 0.12 0.00 92 1019.9
20260901010123 53 198 0.0 0.0 0.00 0.12 0.00 92 1019.9
20260901005116 52 238 0.0 0.0 0.00 0.12 0.00 92 1019.9
20260901004123 52 238 0.0 0.0 0.00 0.12 0.00 91 1019.8
20260901003116 52 238 0.0 0.0 0.00 0.12 0.00 91 1019.8
20260901002123 52 238 0.0 0.0 0.00 0.12 0.00 91 1019.8
20260901001116 52 238 0.0 0.0 0.00 0.12 0.00 91 1019.8
20260901000130 53 238 0.0 0.0 0.00 0.12 0.00 90 1019.8
20260831235114 53 238 0.0 0.0 0.00 0.12 0.00 90 1019.9
20260831234134 53 238 0.0 0.0 0.00 0.12 0.00 90 1019.9
20260831233140 53 238 0.0 0.0 0.00 0.12 0.00 90 1019.9